Woodinville, Washington, United States (98072)
Lat: 47.75N, Lon: 122.16W
Wx Zone: WAZ505
Local Info
Past Weather Observations for Thursday, December 18, 2014

NOTE: This archive is for the closest National Weather Service station to Woodinville. Information may differ from the station used for current weather conditions.

Click here for Long-term Archive

Time Weather Temperature Dewpoint Humidity Pressure Winds Precip Visibility
23:53
Overcast
Light Rain
46°F / 8°C 45°F / 7°C 93% 29.77 in
(1008 mb)
SSE 16.1 mph
(SSE 26 kph)
0.04 in
(1.02 mm)
9SM
22:53
Overcast
Light Rain
46°F / 8°C 43°F / 6°C 87% 29.74 in
(1007 mb)
SSE 13.8 mph
(SSE 22 kph)
0.09 in
(2.29 mm)
7SM
21:53
Overcast
Light Rain
46°F / 8°C 43°F / 6°C 87% 29.74 in
(1007 mb)
SSE 13.8 mph
(SSE 22 kph)
0.04 in
(1.02 mm)
7SM
20:53
Overcast
Light Rain
46°F / 8°C 43°F / 6°C 87% 29.71 in
(1006 mb)
SE 9.2 mph
(SE 15 kph)
0.02 in
(0.51 mm)
9SM
19:53
Overcast
Light Rain
46°F / 8°C 43°F / 6°C 87% 29.71 in
(1006 mb)
SE 13.8 mph
(SE 22 kph)
0.06 in
(1.52 mm)
9SM
18:53
Overcast
Light Rain
46°F / 8°C 43°F / 6°C 87% 29.74 in
(1007 mb)
Variable 5.8 mph
(Variable 9 kph)
0.06 in
(1.52 mm)
10SM
17:53
Overcast
Light Rain
46°F / 8°C 43°F / 6°C 87% 29.77 in
(1008 mb)
SSE 9.2 mph
(SSE 15 kph)
0.01 in
(0.25 mm)
10SM
16:53
Overcast
Light Rain
46°F / 8°C 43°F / 6°C 87% 29.77 in
(1008 mb)
SSE 11.5 mph
(SSE 19 kph)
0.03 in
(0.76 mm)
10SM
15:53
Mostly Cloudy
48°F / 9°C 41°F / 5°C 76% 29.8 in
(1009 mb)
SSE 11.5 mph
(SSE 19 kph)
0.00 in
(0.00 mm)
10SM
14:53
Overcast
Light Rain
48°F / 9°C 39°F / 4°C 71% 29.8 in
(1009 mb)
SSE 6.9 mph
(SSE 11 kph)
0.00 in
(0.00 mm)
10SM
13:53
Overcast
Light Rain
48°F / 9°C 39°F / 4°C 71% 29.83 in
(1010 mb)
SSE 12.7 mph
(SSE 20 kph)
0.00 in
(0.00 mm)
8SM
12:53
Overcast
46°F / 8°C 41°F / 5°C 82% 29.83 in
(1010 mb)
SE 10.4 mph
(SE 17 kph)
0.00 in
(0.00 mm)
10SM
11:53
Overcast
Light Rain
46°F / 8°C 41°F / 5°C 82% 29.86 in
(1011 mb)
SE 9.2 mph
(SE 15 kph)
0.01 in
(0.25 mm)
10SM
10:53
Overcast
46°F / 8°C 41°F / 5°C 82% 29.92 in
(1013 mb)
SSE 5.8 mph
(SSE 9 kph)
- 10SM
09:53
Overcast
45°F / 7°C 39°F / 4°C 81% 29.92 in
(1013 mb)
SE 6.9 mph
(SE 11 kph)
- 10SM
08:53
Overcast
45°F / 7°C 41°F / 5°C 87% 29.92 in
(1013 mb)
SE 3.5 mph
(SE 6 kph)
- 10SM
07:53
Partly Cloudy
45°F / 7°C 41°F / 5°C 87% 29.95 in
(1014 mb)
SSE 8.1 mph
(SSE 13 kph)
- 10SM
06:53
Mostly Cloudy
45°F / 7°C 43°F / 6°C 93% 29.95 in
(1014 mb)
SSE 9.2 mph
(SSE 15 kph)
- 9SM
06:42
Overcast
45°F / 7°C 43°F / 6°C 93% 29.95 in
(1014 mb)
SSE 9.2 mph
(SSE 15 kph)
- 9SM
05:53
Overcast
45°F / 7°C 43°F / 6°C 93% 29.95 in
(1014 mb)
SSE 11.5 mph
(SSE 19 kph)
- 9SM
05:43
Overcast
45°F / 7°C 43°F / 6°C 93% 29.92 in
(1013 mb)
S 11.5 mph
(S 19 kph)
- 8SM
04:53
Overcast
Fog And Mist
45°F / 7°C 43°F / 6°C 93% 29.92 in
(1013 mb)
SSE 10.4 mph
(SSE 17 kph)
- 5SM
03:53
Overcast
45°F / 7°C 43°F / 6°C 93% 29.95 in
(1014 mb)
SSE 10.4 mph
(SSE 17 kph)
0.00 in
(0.00 mm)
9SM
03:12
Overcast
Fog And Mist
45°F / 7°C 43°F / 6°C 93% 29.95 in
(1014 mb)
SSE 9.2 mph
(SSE 15 kph)
0.00 in
(0.00 mm)
6SM
02:53
Overcast
45°F / 7°C 43°F / 6°C 93% 29.95 in
(1014 mb)
SSE 10.4 mph
(SSE 17 kph)
0.00 in
(0.00 mm)
7SM
02:36
Overcast
Light Rain
45°F / 7°C 43°F / 6°C 93% 29.95 in
(1014 mb)
SSE 12.7 mph
(SSE 20 kph)
0.00 in
(0.00 mm)
6SM
02:10
Overcast
45°F / 7°C 43°F / 6°C 93% 29.92 in
(1013 mb)
SSE 8.1 mph
(SSE 13 kph)
0.00 in
(0.00 mm)
8SM
02:03
Overcast
Light Rain
45°F / 7°C 41°F / 5°C 87% 29.92 in
(1013 mb)
SSE 10.4 mph
(SSE 17 kph)
0.00 in
(0.00 mm)
6SM
01:53
Overcast
Fog And Mist
45°F / 7°C 43°F / 6°C 93% 29.92 in
(1013 mb)
SSE 12.7 mph
(SSE 20 kph)
0.00 in
(0.00 mm)
6SM
01:42
Overcast
Fog And Mist
45°F / 7°C 43°F / 6°C 93% 29.92 in
(1013 mb)
SSE 9.2 mph
(SSE 15 kph)
0.00 in
(0.00 mm)
6SM
01:21
Overcast
Fog And Mist
45°F / 7°C 43°F / 6°C 93% 29.92 in
(1013 mb)
SSE 8.1 mph
(SSE 13 kph)
0.00 in
(0.00 mm)
4SM
01:12
Overcast
45°F / 7°C 43°F / 6°C 93% 29.92 in
(1013 mb)
SSE 6.9 mph
(SSE 11 kph)
0.00 in
(0.00 mm)
7SM
00:53
Overcast
Light Rain
45°F / 7°C 43°F / 6°C 93% 29.92 in
(1013 mb)
SSE 6.9 mph
(SSE 11 kph)
0.03 in
(0.76 mm)
4SM
Time Weather Temperature Dewpoint Humidity Pressure Winds Precip Visibility


Weather for websites

WeatherForYou.com, LLC is not responsible for any damages or problems caused by this service. Current weather conditions are obtained from the closest station including government and personal stations which may have varying degrees of accuracy. Weather forecasts are derived from the NOAA NDFD. Like all things, this site belongs to Jesus Christ... He just trusts me to maintain it. If you have any questions or comments email webmaster@weatherforyou.com

Copyright © 2014, WeatherForYou.com LLC. All rights reserved.